Regional Weather Roundup
Issued by NWS

Home | Current Version | Previous Version | Graphics & Text | Print | Product List | Glossary On
Versions: 1 2 3 4 5 6 7 8 9 10 11 12 13 14 15 16 17 18 19 20 21 22 23 24 25 26 27 28 29 30 31 32 33 34 35 36 37 38 39 40 41 42 43 44 45 46 47 48 49 50
000
ASUS43 KMKX 061421
RWRWI

WISCONSIN REGIONAL WEATHER ROUNDUP
NATIONAL WEATHER SERVICE MILWAUKEE/SULLIVAN WI
900 AM CDT MON JUL 06 2015

NOTE: "FAIR" INDICATES FEW OR NO CLOUDS BELOW 12,000 FEET WITH NO
SIGNIFICANT WEATHER AND/OR OBSTRUCTIONS TO VISIBILITY.

WIZ001-002-006>008-014>016-023>028-061500-
NORTHWEST WISCONSIN

CITY           SKY/WX    TMP DP  RH WIND       PRES   REMARKS
SUPERIOR ARPT  LGT RAIN  61  60  96 NE10      29.86S
ASHLAND        LGT RAIN  68  67  96 CALM      29.84F
HAYWARD        LGT RAIN  68  66  93 N6        29.83F
SIREN          CLOUDY    68  67  96 N5        29.80F
CUMBERLAND     LGT RAIN  66  64  94 SE5       29.81S
RICE LAKE      RAIN      67  66  95 SE6       29.83R
CHETEK         CLOUDY    67  66  97 E8        29.81R
LADYSMITH      CLOUDY    68  67  94 E12       29.84F
EAU CLAIRE     CLOUDY    70  68  93 SE5       29.79F FOG
MENOMONIE      CLOUDY    70  69  98 E9        29.80S
NEW RICHMOND   LGT RAIN  68  68  99 SE5       29.79F
OSCEOLA        LGT RAIN  69  69 100 E3        29.81S
$$

WIZ003>005-009-010-017-018-061500-
NORTH CENTRAL WISCONSIN

CITY           SKY/WX    TMP DP  RH WIND       PRES   REMARKS
MANITOWISH WTR LGT RAIN  66  66 100 SE3       29.86F
ARBOR VITAE    LGT RAIN  67  65  94 S6        29.88S
WOODRUFF       LGT RAIN  67  65  94 S6        29.88S
RHINELANDER    LGT RAIN  67  65  93 CALM      29.89S FOG
EAGLE RIVER    HVY RAIN  66  66 100 CALM      29.88R VSB 3/4
LAND O LAKES   HVY RAIN  67  66  96 S5        29.89R
PHILLIPS       DRIZZLE   66  66 100 SE8       29.85F
TOMAHAWK       LGT RAIN  66  65  95 CALM      29.88F VSB 1
MEDFORD        DRIZZLE   67  66  98 SE3       29.87S
MERRILL        CLOUDY    67  67 100 CALM      29.88S FOG
$$

WIZ029-030-035-036-043>047-061500-
CENTRAL WISCONSIN

CITY           SKY/WX    TMP DP  RH WIND       PRES   REMARKS
WAUSAU         CLOUDY    69  66  90 SW3       29.85F FOG
MOSINEE        CLOUDY    66  66 100 S8        29.88S FOG
MARSHFIELD     CLOUDY    69  65  86 S8        29.86S FOG
STEVENS POINT  RAIN      66  65  96 SW5       29.88S
WAUPACA        CLOUDY    74  68  82 S10       29.86F HAZE
WAUTOMA        CLOUDY    73  68  84 S10       29.86F
WISC RAPIDS    LGT RAIN  69  66  90 SW6       29.88S FOG
CAMP DOUGLAS   LGT RAIN  70  70 100 S6        29.87R
$$

WIZ011>013-019>022-031-037>040-048>050-061500-
NORTHEAST WISCONSIN

CITY           SKY/WX    TMP DP  RH WIND       PRES   REMARKS
ANTIGO         CLOUDY    65  64  96 CALM      29.90R FOG
SHAWANO        CLOUDY    73  66  78 S6        29.88S
OCONTO         CLOUDY    72  68  87 S7        29.87F
STURGEON BAY   CLOUDY    68  61  77 S14       29.91F
GREEN BAY      CLOUDY    73  66  78 S10       29.89F HAZE
MANITOWOC      CLOUDY    68  63  84 MISG      29.92F HAZE
APPLETON       PTSUNNY   72  64  78 S10       29.89F HAZE
CLINTONVILLE   CLOUDY    72  64  78 S8        29.86F
OSHKOSH        CLOUDY    73  66  78 S16       29.88F HAZE
$$

WIZ032>034-041-042-053>061-061500-
SOUTHWEST WISCONSIN

CITY           SKY/WX    TMP DP  RH WIND       PRES   REMARKS
LA CROSSE      CLOUDY    74  70  87 S8        29.84F FOG
SPARTA         LGT RAIN  69  68  95 S5        29.88R
VIROQUA        CLOUDY    71  71 100 SW10      29.90R
BOSCOBEL       LGT RAIN  73  70  90 CALM      29.89R FOG
PRAIRIE DU CHI CLOUDY    74  67  78 S6        29.89R
PLATTEVILLE    CLOUDY    73  70  91 S9        29.92R
$$

WIZ056-057-062-063-064-067-068-061500-
SOUTH CENTRAL WISCONSIN

CITY           SKY/WX    TMP DP  RH WIND       PRES   REMARKS
REEDSBURG      CLOUDY    72  67  87 SW10      29.89R
BARABOO/DELLS  CLOUDY    73  65  77 S14       29.88S
LONE ROCK      LGT RAIN  72  69  90 W6        29.91R FOG
MINERAL POINT  CLOUDY    73  70  88 S10       29.92R FOG
MADISON        CLOUDY    74  66  76 S10       29.90R
MIDDLETON      CLOUDY    74  67  80 S12       29.90F
WATERTOWN      CLOUDY    72  72  99 S6        29.92S
MONROE         CLOUDY    72  68  88 S13       29.92S
JANESVILLE     CLOUDY    75  66  73 S9        29.93R
$$

WIZ051-052-058>065-066-070>072-061500-
SOUTHEAST WISCONSIN

CITY           SKY/WX    TMP DP  RH WIND       PRES   REMARKS
MILWAUKEE      PTSUNNY   74  65  73 S9        29.94F
WAUKESHA       SUNNY     70  64  83 S7        29.95F
MILWAUKEE/TIMM SUNNY     73  63  68 S9G17     29.95F
RACINE         PTSUNNY   74  64  71 S9        29.97F HAZE
BURLINGTON     PTSUNNY   72  65  79 S7        29.94F
KENOSHA        PTSUNNY   75  66  73 S9        29.97S HAZE
FOND DU LAC    CLOUDY    75  67  76 S13       29.90F
SHEBOYGAN      CLOUDY    70  64  81 S8        29.93S HAZE
WEST BEND      CLOUDY    70  63  78 S7        29.94S
JUNEAU         CLOUDY    72  66  83 S12       29.92F
$$

LSZ147-162-061500-
LAKE SUPERIOR

STATION/POSITION TIME  TEMP    WIND        PRES    WAVE
                       AIR SEA DIR/SP/G            HT/PER
                 (UTC) (F)     (DEG/KT/KT) (MB)    (FT/S)
W MID LAKE BUOY  1350   50 39  350/ 12/ 12 1011.4R   1
DEVILS ISLAND    1400   60      30/ 14/ 17 1011.0F
PORT WING        1300   63      30/  8/ 14 1011.2
SAXON HARBOR     1300   67        CALM     1010.2F
$$

LMZ867-665-643>646-061500-
LAKE MICHIGAN

STATION/POSITION TIME  TEMP    WIND        PRES    WAVE
                       AIR SEA DIR/SP/G            HT/PER
                 (UTC) (F)     (DEG/KT/KT) (MB)    (FT/S)
CHAMBERS ISLAND  1300   70     150/  6/ 13 1012.2F
S GREEN BAY BUOY 1400   71 69  180/ 12/ 16 1013.1F
N MID LAKE BUOY  1350   58 55  190/ 16/ 17 1012.5F   2/ 4
NORTHPORT PIER   1300   65     140/  9/ 11 1012.5F
SISTER BAY       1214   67     180/ 14/ 17   N/A
ALGOMA LAKESHORE 1341          220/ 10/ 11   N/A
KEWAUNEE LAKESHO 1400   60     180/ 11/ 13 1012.4F
SHEBOYGAN LAKESH 1400   63     180/ 15/ 15 1013.9S
PORT WASHINGTON  1300   65     190/  5/  7 1014.6F
ATWATER BUOY     1400   63 59  150/ 10/ 12 1015.1F
MILWAUKEE LAKESH 1400   67     150/  9/ 10   N/A
KENOSHA   LAKESH 1400   65     170/ 11/ 13 1014.2F
$$

TC  - TEMPERATURE IN CELSIUS
VSB - VISIBILITY IN STATUTE MILES
WCI - WIND CHILL INDEX
HX  - HEAT INDEX




USA.gov is the U.S. government's official web portal to all federal, state and local government web resources and services.